#timestamp,LO_Frequency,Hit,StdDev 
1458705615.1,286046998.8,N
1458705616.0,286046998.8,N
1458705635.8,286046998.7,N
1458705655.6,286047000.1,N
1458705675.5,286047002.7,N
1458705695.3,286047001.4,N
1458705715.1,286047002.2,N
1458705735.8,286047004.2,N
1458705755.7,286047003.9,N
1458705775.5,286047001.6,N
1458705795.3,286047004.6,N
1458705815.2,286047004.6,N
1458705835.9,286047006.2,N
1458705855.7,286047010.5,Y
1458705875.6,286047008.5,P
1458705895.4,286047009.2,N
1458705915.2,286047008.2,N
1458705935.1,286047010.8,Y
1458705936.0,286047010.8,P
1458705955.8,286047002.6,N
1458705975.6,286047003.6,N
1458705995.5,286047005.1,N
1458706015.3,286047004.3,N
1458706035.1,286047005.9,N
1458706055.9,286047007.0,N
1458706075.7,286047008.3,Y
1458706095.5,286046999.8,P
1458706115.4,286047003.7,N
1458706135.2,286047003.5,N
1458706155.0,286047005.0,N
1458706155.9,286047005.0,N
1458706175.8,286047007.5,Y
1458706195.6,286047001.6,P
1458706215.4,286047002.4,N
1458706235.3,286047001.2,N
1458706255.1,286047001.5,N
1458706256.0,286047001.5,N
1458706275.8,286047002.7,Y
1458706295.7,286046998.6,P
1458706315.5,286046996.8,N
1458706335.3,286046998.4,N
1458706355.2,286047001.4,N
1458706375.9,286046998.2,N
1458706395.7,286046999.3,N
1458706415.6,286046998.6,N
1458706435.4,286046996.5,N
1458706455.2,286046997.0,N
1458706475.1,286046993.9,Y
1458706476.0,286046993.9,P
1458706495.8,286046994.3,N
1458706515.6,286046992.5,P
1458706535.5,286046990.8,Y
1458706555.3,286046997.0,P
1458706575.1,286046998.6,N
1458706595.9,286047000.1,N
1458706615.7,286046999.7,N
1458706635.5,286046999.7,N
1458706655.3,286047004.2,N
1458706675.2,286047004.6,N
1458706695.9,286047006.7,N
1458706715.7,286047006.4,N
1458706735.6,286047005.8,N
1458706755.4,286047008.5,N
1458706775.2,286047010.3,N
1458706795.1,286047010.6,N
1458706796.0,286047010.6,N
1458706815.8,286047009.9,N
1458706835.6,286047006.1,N
1458706855.5,286047008.4,N
1458706875.3,286047010.2,N
1458706895.1,286047009.9,N
1458706915.8,286047013.9,N
1458706935.7,286047013.5,N
1458706955.5,286047013.1,N
1458706975.3,286047015.6,N
1458706995.2,286047013.8,N
1458707015.9,286047012.6,N
1458707035.7,286047013.7,N
1458707055.6,286047012.6,N
1458707075.4,286047013.9,N
1458707095.2,286047014.6,N
1458707115.1,286047015.0,N
1458707116.0,286047015.0,N
1458707135.8,286047013.0,N
1458707155.6,286047013.3,N
1458707175.5,286047012.1,N
1458707195.3,286047009.5,N
1458707215.1,286047014.0,Y
1458707235.9,286046996.6,P
1458707255.7,286046999.2,N
1458707275.5,286047000.1,N
1458707295.3,286047000.0,N
1458707315.2,286047002.3,N
1458707335.0,286047002.1,N
1458707335.9,286047002.1,N
1458707355.7,286046999.8,N
1458707375.6,286046998.5,N
1458707395.4,286047000.2,N
1458707415.2,286046996.7,N
1458707435.1,286046996.6,N
1458707436.0,286046996.6,N
1458707455.8,286046997.3,N
1458707475.6,286047000.5,N
1458707495.5,286046996.7,N
1458707515.3,286046995.4,N
1458707535.1,286046996.8,N
1458707555.9,286046993.6,N
1458707575.7,286046993.4,N
1458707595.5,286046992.0,N
1458707615.3,286046991.7,N
1458707635.2,286046994.4,N
1458707655.0,286046993.3,N
1458707655.9,286046993.3,N
1458707675.7,286046993.7,N
1458707695.6,286046994.8,N
1458707715.4,286046994.6,N
1458707735.2,286046995.8,N
1458707755.1,286046995.7,N
1458707756.0,286046995.7,N
1458707775.8,286046994.5,N
1458707795.6,286046992.9,N
1458707815.5,286046994.3,N
1458707835.3,286046993.7,N
1458707855.1,286046996.0,N
1458707875.9,286046995.8,N
1458707895.7,286046995.8,N
1458707915.5,286046995.1,N
1458707935.3,286046997.4,N
1458707955.2,286046993.3,Y
1458707975.0,286046996.9,P
1458707975.9,286046996.9,P
1458707995.8,286046996.9,P
1458708015.6,286046999.4,N
1458708035.4,286046997.2,N
1458708055.3,286046995.1,Y
1458708075.1,286046999.4,P
1458708076.0,286046999.4,N
1458708095.8,286047000.0,N
1458708115.6,286046998.5,N
1458708135.5,286047001.1,N
1458708155.3,286046997.0,N
1458708175.1,286046997.0,N
1458708195.9,286046996.2,N
1458708215.7,286046994.0,Y
1458708235.5,286046997.3,P
1458708255.4,286046996.0,P
1458708275.2,286046994.2,P
1458708295.0,286046990.7,Y
1458708296.0,286046990.7,P
1458708315.8,286046995.8,N
1458708335.6,286046995.9,N
1458708355.4,286046993.9,N
1458708375.3,286046993.9,N
1458708395.1,286046994.8,N
1458708415.8,286046994.8,N
1458708435.7,286046992.8,Y
1458708455.5,286046995.6,P
1458708475.3,286046999.3,N
1458708495.2,286047001.0,N
1458708515.9,286046998.7,N
1458708535.7,286046998.4,N
1458708555.6,286046999.6,N
1458708575.4,286046993.7,N
1458708595.2,286046991.6,Y
1458708615.1,286046992.4,P
1458708616.0,286046992.4,N
1458708635.8,286046993.2,N
1458708655.6,286046990.2,Y
1458708675.5,286046996.0,P
1458708695.3,286046994.4,P
1458708715.1,286046993.3,P
1458708735.9,286046994.1,Y
1458708755.7,286046996.1,P
1458708775.5,286046996.4,P
1458708795.4,286046998.0,N
1458708815.2,286046996.4,N
1458708835.0,286046994.4,Y
1458708835.9,286046994.4,P
1458708855.8,286046997.3,N
1458708875.6,286046993.3,P
1458708895.4,286046995.1,Y
1458708915.3,286047003.5,P
1458708935.1,286047001.1,N
1458708955.8,286046998.8,N
1458708975.7,286046998.6,N
1458708995.5,286046996.5,N
1458709015.3,286046995.9,N
1458709035.2,286046995.3,N
1458709055.9,286046993.8,N
1458709075.7,286046993.6,N
1458709095.6,286046996.3,N
1458709115.4,286046994.9,N
1458709135.2,286046999.6,N
1458709155.0,286046995.6,N
1458709156.0,286046995.6,N
1458709175.8,286046995.7,N
1458709195.6,286046993.8,N
